Regional Weather Roundup
Issued by NWS Mt. Holly, NJ

Home | Current Version | Previous Version | Text Only | Print | Product List | Glossary On
Versions: 1 2 3 4 5 6 7 8 9 10 11 12 13 14 15 16 17 18 19 20 21 22 23 24 25 26
000
ASUS41 KPHI 220811
RWRPHI

REGIONAL WEATHER ROUNDUP
NATIONAL WEATHER SERVICE MOUNT HOLLY NJ
300 AM EST WED FEB 22 2017

NOTE:  "FAIR" INDICATES FEW OR NO CLOUDS BELOW 12,000 FEET WITH NO
SIGNIFICANT WEATHER AND/OR OBSTRUCTIONS TO VISIBILITY.

 * = STATION DOES NOT REPORT PRECIPITATION (E.G. RAIN, SNOW, ETC.)
        OR FOG.

NJZ015>026-220900-
SOUTHERN NEW JERSEY

CITY           SKY/WX    TMP DP  RH WIND       PRES   REMARKS
POMONA         CLOUDY    38  34  85 CALM      30.08F
WRIGHTSTOWN    CLOUDY    38  35  87 SW6       30.04F WCI  34
TRENTON        NOT AVBL

$$
NJZ001>014-220900-
NORTHERN NEW JERSEY

CITY           SKY/WX    TMP DP  RH WIND       PRES   REMARKS
ANDOVER*         N/A     40  33  76 SW5       30.05S
MORRISTOWN     CLOUDY    39  32  75 S3        30.07S
NEWARK         CLOUDY    42  34  73 SW5       30.08S

$$
PAZ043-044-047-054-055-060>062-066>071-220900-
EASTERN PENNSYLVANIA

CITY           SKY/WX    TMP DP  RH WIND       PRES   REMARKS
PHILADELPHIA   CLOUDY    42  36  79 S3        30.07F
BLUE BELL*     PTCLDY    41  34  75 CALM      30.05F
QUAKERTOWN*    PTCLDY    39  34  81 CALM      30.06S
PERKASIE*      PTSUNNY   39  34  81 CALM      30.06
COATESVILLE    CLOUDY    39  36  87 VRB5      30.05F
READING        NOT AVBL
ALLENTOWN      NOT AVBL
MOUNT POCONO   NOT AVBL
WILKES BARRE   NOT AVBL

$$
DEZALL-MDZ008-012-015-019-020-220900-
DELAWARE AND EASTERN MARYLAND

CITY           SKY/WX    TMP DP  RH WIND       PRES   REMARKS
WILMINGTON     NOT AVBL
DOVER          CLOUDY    40  40 100 SE5       30.06F
GEORGETOWN     NOT AVBL
EASTON         MOCLDY    42  37  80 S3        30.09F
ABERDEEN       CLOUDY    39  36  87 CALM      30.07F
PATUXENT       CLOUDY    43  42  97 S5        30.06F
OCEAN CITY     CLOUDY    40  37  89 CALM      30.08F
WALLOPS ISLAND CLOUDY    40  40 100 CALM      30.08F
SALISBURY      CLOUDY    39  37  92 CALM      30.07F

$$
PAZ001-021-NYZ056-072-MDZ011-DCZ001-220900-
OTHER NEARBY LOCATIONS

CITY           SKY/WX    TMP DP  RH WIND       PRES   REMARKS
HARRISBURG     CLOUDY    43  36  76 E3        30.03F
STATE COLLEGE  CLOUDY    46  32  58 W3        29.98F
BINGHAMTON     NOT AVBL
NEW YORK CITY  PTCLDY    43  34  70 VRB6      30.09S
BALTIMORE      CLOUDY    44  39  82 CALM      30.05F
WASHINGTON DC  CLOUDY    46  40  79 S8        30.05F

$$




USA.gov is the U.S. government's official web portal to all federal, state and local government web resources and services.